TIANWANG 1C (TW-1C)
1 40926U 15051B   18111.53945602  .00008072  00000-0  15533-3 0  9996
2 40926  97.1893 154.1635 0011621 119.1909 345.5841 15.48094037144545
TIANWANG 1B (TW-1B)
1 40927U 15051C   18111.58407666  .00008137  00000-0  16320-3 0  9992
2 40927  97.1979 154.0684 0011507 129.5798 356.2153 15.46887799144467
TIANWANG 1A (TW-1A)
1 40928U 15051D   18111.36868932  .00003199  00000-0  86453-4 0  9994
2 40928  97.1901 146.4725 0012361 158.5799 323.9328 15.38390450144049
LAPAN A2
1 40931U 15052B   18109.83478880  .00000646  00000-0  84585-6 0  9997
2 40931   5.9993 206.2112 0013628 266.0146  93.8423 14.76571392138368
LQSAT
1 40958U 15057A   18111.51328428  .00000029  00000-0  12182-4 0  9998
2 40958  97.9432 185.8915 0018749 154.3241 205.8908 14.73026171136507
CHUBUSAT 2
1 41338U 16012B   18111.01778854  .00000414  00000-0  25616-4 0  9994
2 41338  31.0039 316.8658 0014013 227.7357 132.2090 14.99958400119249
CHUBUSAT 3
1 41339U 16012C   18111.57101551  .00000346  00000-0  20220-4 0  9990
2 41339  31.0119 312.0258 0013864 240.5346 119.3911 15.00147632119313
OUFTI-1
1 41458U 16025C   18111.11025019  .00001802  00000-0  97887-4 0  9991
2 41458  98.1399 170.8963 0170216 339.5354  19.9126 15.04494154108853
E-STAR-2
1 41459U 16025D   18111.10721007  .00001786  00000-0  97648-4 0  9997
2 41459  98.1428 170.7577 0170628 340.1536  19.3140 15.04240356108846
AAUSAT 4
1 41460U 16025E   18111.07227061  .00001666  00000-0  90562-4 0  9991
2 41460  98.1352 171.1352 0162078 336.9101  22.4903 15.05608489108894
NUSAT 1
1 41557U 16033B   18111.20234400  .00001728  00000-0  65498-4 0  9996
2 41557  97.4372 195.5265 0013816   6.3064 353.8346 15.28198682105454
BEESAT 4
1 41619U 16040W   18110.60943640 +.00001879 +00000-0 +85309-4 0  9999
2 41619 097.4203 174.5417 0013317 075.3472 284.9240 15.21949541089333
PRATHAM
1 41783U 16059A   18110.82037008 +.00000061 +00000-0 +21353-4 0  9998
2 41783 098.1231 173.2903 0032218 275.9103 083.8426 14.62914067083571
ALSAT 1N
1 41789U 16059G   18111.44100867  .00000104  00000-0  28953-4 0  9998
2 41789  98.1239 175.0080 0026910 266.8204  92.9922 14.64143900 83714
NAYIF 1
1 42017U 17008BX  18111.51158895  .00002538  00000-0  10695-3 0  9996
2 42017  97.4525 176.8971 0005681 204.9877 155.1086 15.24256286 65439
LILACSAT-1
1 42725U 98067ME  18111.07327098  .00040848  00000-0  38337-3 0  9999
2 42725  51.6364 288.8397 0003798  13.7550 346.3549 15.66746540 51554
MAX VALIER SAT
1 42778U 17036P   18111.15146750  .00001281  00000-0  60540-4 0  9997
2 42778  97.4090 171.7977 0010961 268.9912  91.0068 15.21179146 45833
